Location: Tierz
(42.1336°N, 0.3549°W)
Time: 12:09:21
(UTC+00:00)

USA 307 - Pass Details

Date: 29 October 2020
Orbit: 569 x 579 km, 54.0° (Epoch: 23 November)

Event Time Altitude Azimuth Distance (km) Brightness Sun altitude
Rises 18:39:26 0° 310° (NW) 2,787 7.2 -19.2°
Reaches altitude 10° 18:41:43 10° 313° (NW) 1,884 6.2 -19.6°
Maximum altitude 18:45:59 65° 35° (NE) 632 2.9 -20.4°
Enters shadow 18:46:30 58° 76° (ENE) 667 2.8 -20.5°
